Home > Weather > Erie > Past weeks

Flag for USA Weather for the Past 2 Weeks in Erie, Pennsylvania, USA

Now
48 °F

Fog.


Feels Like: 46 °F
Forecast: 48 / 55 °F
Wind: 5 mph from North

Location: Erie International Airport

Current Time: May 1, 2016 at 1:37:54 PM

Latest Report: May 1, 2016 at 12:58 PM


Visibility: 0 mi

Pressure: 29.95 "Hg

Humidity: 93%

Dew Point: 46 °F

Location of ErieLocation

Historic Weather in Erie — Graph

°F

Erie Temperature Yesterday

Maximum temperature yesterday: 56 °F (at 4:51 PM)
Minimum temperature yesterday: 34 °F (at 4:51 AM)
Average temperature yesterday: 48 °F

High & Low Weather Summary for the Past Weeks

 TemperatureHumidityPressure
High70 °F (Apr 18, 5:51 PM)97% (Apr 26, 6:51 AM)30.45 "Hg (Apr 26, 6:51 AM)
Low33 °F (Apr 27, 6:51 AM)19% (Apr 17, 5:51 PM)29.66 "Hg (Apr 26, 5:51 AM)
Average51 °F64%30.08 "Hg
* Reported Apr 16 12:51 PM — May 1 12:01 PM, Erie, Weather by CustomWeather, © 2016

Note: Actual official high and low records may vary slightly from our data, if they occured in-between our weather recording intervals... More about our weather records

Advertising

Erie Weather History for the Previous 24 Hours

Scroll right to see more
 ConditionsComfort  
Time TempWeatherWind HumidityBarometerVisibility
12:01 PM
Sun, May 1
51 °FFog.3 mph92%29.93 "Hg1 mi
10:51 AM59 °FLow clouds.6 mph90%29.91 "Hg10 mi
9:51 AM53 °FFog.No wind93%29.91 "Hg2 mi
8:51 AM50 °FFog.No wind96%29.92 "Hg1 mi
7:51 AM52 °FMore clouds than sun.3 mph93%29.90 "Hg9 mi
6:51 AM50 °FFog.6 mph93%29.88 "Hg6 mi
5:51 AM49 °FLow clouds.8 mph97%29.89 "Hg8 mi
4:51 AM49 °FLight rain. Fog.10 mph93%29.90 "Hg5 mi
3:51 AM51 °FLight rain. Fog.7 mph89%29.91 "Hg6 mi
2:51 AM52 °FLight rain. Overcast.6 mph86%29.93 "Hg10 mi
1:51 AM51 °FLight rain. Fog.12 mph89%29.95 "Hg4 mi
12:51 AM52 °FLight rain. Fog.13 mph86%29.99 "Hg6 mi
11:51 PM
Sat, Apr 30
52 °FMostly cloudy.12 mph86%30.01 "Hg10 mi
10:51 PM53 °FOvercast.13 mph83%30.04 "Hg10 mi
9:51 PM53 °FLight rain. Overcast.9 mph83%30.06 "Hg8 mi
8:51 PM52 °FLight rain. Overcast.6 mph89%30.07 "Hg7 mi
7:51 PM53 °FLight rain. Overcast.7 mph80%30.06 "Hg7 mi
6:51 PM55 °FLight rain. Overcast.7 mph67%30.07 "Hg10 mi
5:51 PM55 °FPassing clouds.10 mph64%30.09 "Hg10 mi
4:51 PM56 °FPartly sunny.13 mph65%30.10 "Hg10 mi
3:51 PM54 °FPartly sunny.14 mph69%30.11 "Hg10 mi
2:51 PM55 °FPartly sunny.10 mph67%30.13 "Hg10 mi
1:51 PM55 °FOvercast.10 mph69%30.12 "Hg10 mi
Weather by CustomWeather, © 2016

See weather overviewHow to use our weather pages